RH
88 87 84 80 84 87 88 87 85 84 84 84 85 87 87 87 87 86 86 86 85 86 84 84 83 83 61 16 10 38 59 57 37 12 9 15 28 26 30 27 45 55 64 68 64 58 60
82 86 86 85 81 84 88 88 88 86 85 84 85 86 87 86 87 86 86 87 88 86 85 84 82 83 40 9 17 42 41 24 14 12 11 12 22 21 24 24 40 57 62 72 72 74 64
86 86 84 85 83 83 85 86 87 89 90 89 86 85 86 85 85 86 87 88 88 87 85 84 80 68 32 8 30 37 26 22 17 13 14 12 16 22 23 22 28 56 77 74 77 70 71
88 86 84 86 84 85 84 85 86 86 88 92 91 88 85 84 85 87 89 90 89 87 84 84 79 63 25 18 20 23 27 30 20 12 11 10 12 18 20 19 52 59 57 69 80 74 88
85 89 88 86 86 87 87 84 85 86 87 92 94 92 89 87 88 90 89 90 84 84 82 78 64 48 18 32 23 22 24 21 17 13 11 10 12 17 17 19 35 61 56 76 83 78 81
79 75 79 88 88 88 83 82 84 85 86 91 94 94 93 92 91 91 91 87 84 80 76 67 56 37 19 17 17 19 21 15 12 12 11 12 16 18 20 19 32 53 64 72 74 80 68
89 88 87 80 82 89 88 86 83 84 85 92 93 94 94 94 93 93 74 51 30 30 50 26 24 25 20 18 16 13 18 16 13 15 16 18 20 27 21 20 27 38 55 62 74 76 78
82 84 86 89 91 88 91 90 88 86 85 92 92 91 93 94 93 91 64 23 26 26 29 26 31 30 26 23 19 14 14 16 17 23 19 19 23 18 19 20 35 41 50 67 76 78 73
81 83 80 82 87 90 91 90 89 88 85 88 90 90 92 94 91 58 37 27 30 26 30 24 25 25 22 22 17 14 12 16 18 22 20 20 18 18 19 31 38 46 36 64 63 78 72
90 90 91 82 80 81 87 87 82 86 85 86 90 92 90 95 44 39 25 29 29 30 24 20 20 18 22 19 13 14 13 13 14 20 20 18 15 16 17 17 24 33 42 55 76 74 71
91 93 91 83 81 80 82 83 79 79 84 86 90 91 88 90 46 25 24 31 30 25 27 22 16 12 12 12 13 11 12 12 15 14 16 18 15 16 17 15 20 23 49 56 66 71 71
92 89 83 90 89 85 83 79 83 79 79 85 90 91 89 72 65 33 33 32 25 29 28 21 14 15 14 14 13 14 12 13 14 16 17 16 15 15 16 40 24 52 58 61 66 70 77
91 88 88 83 89 90 93 91 83 86 87 84 90 91 90 67 19 37 33 26 31 31 24 17 12 14 16 19 16 15 15 17 19 22 23 19 17 33 43 48 48 52 49 58 65 77 58
90 90 91 89 88 89 84 85 88 92 90 85 92 94 85 69 54 42 26 28 43 28 29 17 13 18 19 21 23 19 19 18 20 19 20 22 20 43 44 38 42 46 33 26 42 50 58
96 93 91 92 91 91 88 82 82 91 91 90 94 61 59 50 63 45 27 37 34 32 26 13 12 17 20 22 23 26 29 21 23 19 24 22 22 22 45 46 40 52 49 33 49 61 66
97 96 96 93 92 93 88 85 82 88 91 91 74 56 45 54 53 29 29 46 34 30 23 10 14 15 20 22 26 27 31 28 26 25 22 24 29 20 27 42 44 43 39 55 62 55 49
97 97 97 96 95 93 90 84 82 85 91 92 56 35 37 50 38 29 27 31 29 24 24 15 13 14 17 25 30 33 32 28 27 26 23 23 25 23 22 35 32 42 42 46 51 51 40
97 97 97 96 95 93 90 83 86 93 94 84 40 32 42 41 31 41 29 31 39 21 17 12 12 12 19 31 33 30 30 30 29 27 25 25 24 27 23 20 22 32 33 32 35 46 44
95 94 96 96 95 92 88 86 90 94 96 91 49 47 42 35 30 34 34 25 22 19 19 12 12 13 28 31 29 33 31 29 32 28 29 26 27 28 24 26 30 31 40 33 26 31 39
94 95 96 96 94 90 90 89 90 93 95 84 57 37 44 38 38 31 32 28 26 21 21 18 16 26 33 35 41 32 34 29 32 29 59 36 26 32 25 33 37 47 46 49 38 26 27
95 96 96 94 92 88 89 91 89 92 96 84 56 39 55 44 40 34 32 36 32 31 22 17 25 21 25 32 35 35 35 29 29 38 37 29 33 32 29 38 40 45 46 53 45 54 29
96 95 92 92 90 87 88 91 88 91 93 72 47 68 61 62 62 51 55 43 35 32 29 16 24 19 29 30 26 27 30 40 32 33 35 39 36 42 43 36 34 46 45 52 63 65 61
93 91 90 89 87 84 87 90 89 91 90 72 62 66 72 64 59 52 45 36 33 40 28 17 20 27 29 26 27 24 26 30 34 35 38 46 46 45 40 36 41 52 50 44 54 57 64
91 89 85 84 82 84 86 88 88 90 93 88 80 71 65 48 60 52 49 47 44 42 38 16 27 28 29 31 31 28 30 34 37 44 37 45 54 62 48 46 60 40 48 42 43 48 55
86 82 80 78 83 86 87 86 88 90 92 91 82 78 70 64 63 51 46 47 41 28 37 23 23 25 29 22 25 32 34 38 38 45 44 45 50 57 61 62 47 52 49 52 45 36 48
84 79 78 82 86 86 86 84 86 90 92 96 83 83 77 76 42 56 54 52 38 28 24 22 24 23 26 33 32 44 50 47 42 45 47 50 56 43 60 57 52 46 45 44 44 50 44
81 80 83 84 86 86 87 85 83 86 91 95 83 82 77 68 47 62 57 50 45 41 30 27 24 25 28 37 40 52 58 61 55 50 52 48 54 51 62 59 47 43 43 48 59 50 56
86 82 83 88 87 87 88 88 86 84 90 97 80 83 76 71 55 50 52 51 46 43 34 32 30 30 37 41 43 62 59 65 54 51 55 55 66 76 58 64 55 45 47 56 51 60 64
90 86 87 89 87 88 88 89 89 90 92 95 90 74 80 93 66 60 51 46 45 41 45 41 40 39 31 41 51 55 59 57 53 50 53 68 48 68 58 50 51 52 53 49 58 63 68
Wind_Speed
15 15 12 12 12 13 13 13 12 12 13 13 12 12 12 12 12 12 11 11 10 11 11 10 10 9 3 2 2 5 9 12 7 3 3 3 6 3 3 0 2 2 7 4 6 10 10
15 14 13 12 13 13 14 14 14 14 14 14 14 13 13 13 12 12 12 12 11 10 9 9 8 8 2 2 2 4 9 7 6 4 3 2 3 2 3 1 0 3 10 9 5 8 6
13 14 14 13 12 13 13 14 14 15 15 15 15 15 15 15 14 13 14 13 13 10 8 6 5 3 1 1 3 5 3 3 2 3 4 2 2 2 1 1 4 11 9 8 4 6 4
10 12 13 12 13 12 13 14 14 15 16 16 16 16 16 16 16 15 16 15 12 9 5 4 2 1 4 2 4 2 3 4 3 1 1 1 3 2 1 1 3 2 2 3 4 5 3
12 10 10 12 11 11 12 14 15 14 15 15 15 16 17 17 17 15 17 17 5 4 3 4 1 2 3 1 3 1 6 4 5 3 0 3 3 1 2 1 3 3 2 3 3 3 5
13 14 12 10 11 11 13 15 15 16 16 16 15 16 16 17 17 14 15 4 7 7 3 4 3 3 1 1 1 5 2 8 4 5 3 2 2 4 3 4 5 4 3 2 3 2 2
14 15 15 13 12 11 11 12 16 17 17 16 16 17 17 18 18 16 3 2 2 2 2 2 3 4 4 4 1 4 4 6 4 2 3 2 5 7 3 3 3 3 3 3 4 3 1
15 14 15 15 15 15 12 12 13 16 19 17 16 19 18 19 20 6 2 3 5 4 7 2 5 6 6 2 2 4 9 4 3 4 3 4 6 5 4 6 6 5 5 3 4 4 5
13 12 15 15 14 15 16 14 14 15 19 19 19 20 20 20 17 2 3 3 4 1 3 3 4 4 1 5 2 6 9 4 3 4 4 5 3 7 4 5 6 5 8 6 1 6 0
11 12 12 14 16 16 15 16 16 16 19 20 19 18 20 26 2 4 1 2 6 4 2 2 2 2 4 1 2 2 6 2 2 4 7 2 3 4 5 5 7 6 9 5 9 8 2
11 11 12 14 15 16 15 16 18 19 19 20 19 19 17 8 6 3 3 6 3 3 2 2 2 3 3 3 5 3 3 2 4 4 4 4 5 4 3 4 10 2 7 9 7 3 2
11 13 15 13 14 16 14 18 17 20 21 22 19 18 15 1 2 5 6 4 3 3 1 1 1 1 2 1 2 3 3 3 2 3 1 4 1 4 1 4 8 14 10 9 6 2 5
10 11 12 16 14 15 16 17 18 18 18 22 20 18 8 2 2 2 4 2 2 3 2 1 1 2 1 2 3 2 6 6 3 3 0 2 4 3 4 9 10 3 7 3 5 4 5
9 10 10 11 13 14 17 18 18 18 18 23 22 18 4 5 3 3 2 2 3 1 2 1 2 2 2 4 3 2 5 6 4 2 2 3 5 10 9 4 6 12 7 6 7 4 1
11 12 10 9 10 12 15 19 20 19 20 21 19 0 2 3 10 4 2 3 4 4 1 1 2 3 2 2 1 2 2 2 0 5 4 4 4 3 8 6 7 7 9 1 2 1 4
12 12 12 10 10 10 12 17 20 20 20 21 4 3 2 2 8 3 2 3 3 3 1 2 3 2 1 0 2 2 1 1 0 1 3 2 5 1 4 5 5 5 8 5 3 5 5
12 11 12 11 10 10 11 15 18 20 22 11 2 1 5 2 3 1 4 4 5 6 4 5 4 3 2 1 1 2 2 2 2 1 2 0 3 2 3 8 9 7 6 3 2 3 5
12 11 11 10 9 10 11 14 14 16 23 5 3 2 3 2 3 1 3 4 2 3 3 4 3 2 3 2 1 2 2 2 1 2 2 2 4 5 5 2 6 5 6 12 9 10 3
11 12 11 8 7 9 11 12 12 12 12 5 3 3 3 3 5 4 2 3 3 3 3 5 5 2 2 4 3 4 2 2 1 1 1 3 2 6 4 5 3 2 4 4 6 2 10
11 11 10 7 6 8 11 12 10 10 8 1 2 2 1 1 1 3 4 3 3 3 3 3 3 4 4 3 0 3 4 1 2 1 4 5 4 6 9 1 2 1 7 7 4 8 9
12 10 7 8 7 9 10 11 10 10 7 1 1 1 3 3 5 5 3 1 3 2 3 5 3 6 6 5 3 4 3 2 2 2 3 4 6 4 4 1 6 3 8 7 1 4 7
10 7 7 8 7 9 10 10 10 10 3 1 2 2 1 3 2 6 6 6 11 6 5 5 6 11 9 6 8 6 6 3 2 2 2 1 3 3 4 7 5 5 5 5 3 4 8
7 7 7 7 7 9 10 10 10 9 4 2 1 1 3 1 2 3 5 6 7 3 7 6 11 8 8 7 7 2 4 5 1 2 2 2 3 4 6 4 2 6 9 7 1 5 4
7 7 8 8 8 10 11 10 8 7 3 1 1 2 2 3 3 4 1 1 5 7 5 2 9 7 4 14 13 9 7 4 2 4 2 3 4 1 1 6 12 4 3 8 7 5 6
7 7 8 9 9 11 12 10 8 6 2 2 1 1 1 4 4 8 7 5 6 5 8 4 3 3 16 5 3 2 2 3 2 3 1 3 3 3 3 7 2 6 8 8 9 5 6
7 8 8 9 10 12 12 10 8 6 3 2 2 1 2 3 4 4 4 2 2 1 2 4 5 8 5 3 2 4 4 1 3 2 2 5 2 4 3 3 5 1 3 2 5 4 8
8 8 8 10 11 12 12 11 9 7 4 4 1 2 2 3 4 2 4 3 0 1 1 3 7 4 1 3 2 3 3 0 3 3 3 2 1 5 3 4 4 4 0 2 4 2 3
7 8 8 9 11 11 12 11 9 8 6 5 1 4 3 3 8 5 4 3 3 1 2 2 3 1 3 3 3 3 3 4 3 2 2 4 3 3 2 3 5 2 2 4 3 2 1
7 8 9 9 11 12 12 10 9 8 7 7 2 1 3 4 6 4 10 15 10 5 1 1 4 3 4 4 2 4 3 4 3 2 3 3 3 1 5 2 3 3 7 5 4 2 1
Wind_Direction
28 21 21 16 7 6 4 2 1 358 354 351 349 345 338 335 332 328 322 315 311 303 303 306 314 325 294 263 288 11 103 125 113 116 90 128 139 142 133 120 178 223 133 150 158 177 201
24 14 14 14 11 5 3 1 0 358 356 352 349 345 338 334 332 329 318 314 308 300 291 299 311 317 278 159 28 95 119 107 116 106 121 138 158 139 106 101 99 95 122 125 165 181 196
23 17 17 12 10 6 0 3 2 359 357 352 348 343 339 333 332 325 316 314 307 292 280 282 301 311 262 46 76 113 114 96 138 140 141 179 69 198 167 140 356 144 107 106 58 145 158
22 23 18 12 9 7 2 358 356 354 354 350 345 341 336 334 331 324 325 319 301 274 254 249 259 242 260 136 140 170 149 102 73 85 82 118 186 91 300 3 103 207 155 179 42 161 20
8 3 14 14 7 5 3 357 353 349 347 345 337 335 334 332 324 326 330 319 308 181 183 156 211 304 93 169 231 117 177 141 116 93 43 112 179 93 122 154 134 37 158 120 162 321 136
7 6 4 3 3 360 2 359 353 349 346 339 336 333 333 328 322 328 322 298 114 127 176 200 236 221 222 66 117 108 159 151 118 122 120 129 116 151 111 202 213 147 150 205 168 117 68
4 5 360 360 357 350 352 354 354 351 345 340 337 334 332 327 323 328 278 190 249 147 183 302 317 282 296 309 196 84 161 155 126 148 169 78 198 202 149 184 140 140 154 213 93 145 227
6 2 359 358 359 351 344 341 346 346 343 340 340 339 333 328 327 337 238 66 92 77 307 237 247 270 269 286 127 111 164 146 170 119 142 158 201 177 172 155 164 162 164 184 116 125 231
359 1 5 360 351 347 344 341 341 342 343 341 340 337 336 332 325 281 337 107 87 67 259 295 209 236 241 180 168 164 181 152 137 148 167 183 121 150 169 156 171 213 226 192 145 154 266
341 341 346 358 356 350 341 343 341 340 340 339 336 335 341 328 259 335 280 84 316 203 345 24 192 153 145 187 118 168 199 166 124 154 160 194 135 199 191 205 207 230 223 188 142 176 207
341 341 340 347 350 349 344 341 340 338 335 335 334 333 336 329 310 242 76 330 131 215 125 359 153 121 137 224 128 141 162 122 162 150 213 150 189 197 213 226 198 259 162 153 148 150 226
343 343 344 337 337 337 339 343 340 337 332 329 326 326 331 172 236 259 329 316 212 244 142 86 131 201 190 26 84 115 161 84 60 150 227 250 159 224 245 38 204 133 111 105 117 173 252
336 341 339 340 335 331 330 332 337 332 325 326 317 318 298 274 262 353 323 210 216 225 358 30 33 344 94 27 120 152 164 168 199 191 197 259 223 166 164 111 139 174 173 192 219 213 250
321 320 323 334 336 332 331 330 328 327 322 325 316 313 203 216 288 299 228 178 215 175 238 347 13 102 70 9 70 108 139 183 195 160 217 273 199 184 172 215 190 191 238 214 236 227 157
310 313 311 320 327 327 331 331 333 325 323 322 316 193 227 255 219 275 159 205 210 194 211 227 164 84 51 36 42 122 41 186 194 195 231 205 242 173 192 154 179 168 217 217 189 221 257
305 306 305 310 314 321 333 330 333 330 325 328 321 318 280 39 166 213 154 243 225 235 207 182 163 182 158 352 165 157 163 104 154 65 228 153 281 79 131 172 191 256 127 177 216 251 256
304 303 304 306 313 319 328 332 334 335 329 328 308 266 16 136 203 153 205 229 231 234 224 189 173 162 240 257 111 122 158 150 186 75 141 211 262 117 166 209 210 171 199 192 278 236 273
304 303 301 300 309 315 325 333 332 338 335 21 337 212 45 206 156 339 195 200 249 231 172 212 138 142 179 153 151 153 169 245 57 342 269 65 290 271 285 118 278 249 259 225 227 204 246
302 299 300 297 307 317 321 325 334 342 11 328 356 304 71 290 193 194 213 236 249 225 210 181 173 155 136 177 175 196 226 124 138 272 327 152 246 273 233 159 181 163 51 355 309 293 236
305 299 303 308 314 321 320 321 335 337 354 332 289 197 140 200 334 192 178 211 238 210 242 206 144 125 143 169 79 191 226 214 336 257 35 188 222 260 276 290 325 80 37 13 249 251 244
306 305 319 320 324 323 321 320 331 339 351 259 274 47 349 189 207 194 201 166 201 257 211 186 159 209 172 172 187 217 220 271 137 356 139 225 244 210 270 215 112 36 25 23 347 310 265
309 326 332 320 322 321 318 318 327 338 350 254 319 334 341 285 287 191 182 213 230 229 219 211 220 188 185 176 206 214 175 210 214 149 155 195 228 204 230 244 40 297 326 32 323 342 282
318 328 334 330 336 328 320 321 328 341 346 344 356 253 279 274 182 203 196 205 201 173 238 231 206 148 184 218 184 77 93 104 35 281 162 195 183 205 247 208 5 310 250 285 196 257 273
331 337 333 336 330 320 317 317 320 330 356 313 4 302 279 269 244 218 290 292 241 242 243 197 176 150 131 114 109 99 84 87 102 45 282 202 155 297 264 178 219 204 164 212 223 233 252
324 330 333 326 320 313 308 308 315 316 282 258 149 311 294 269 287 275 258 252 287 264 208 194 167 74 147 97 102 117 132 185 172 32 301 262 182 145 251 224 308 187 203 200 216 223 206
320 328 327 322 318 314 311 308 305 300 268 225 241 169 266 286 236 304 301 292 285 190 150 107 67 129 72 82 132 192 213 182 196 201 74 81 39 259 179 243 259 19 139 158 218 264 181
317 318 318 314 315 310 309 304 298 290 283 203 227 180 245 258 264 244 237 284 304 247 138 137 155 131 329 123 148 183 192 208 211 209 188 174 50 254 202 238 274 280 352 124 203 55 158
298 301 307 306 305 304 310 302 291 288 294 184 186 188 229 265 279 244 269 267 336 244 166 84 137 159 101 157 183 165 203 174 206 228 205 201 187 191 211 234 260 172 170 234 21 1 141
283 286 295 307 308 305 306 299 289 279 281 181 237 167 202 234 287 314 283 272 259 242 1 122 327 158 150 115 165 140 166 173 190 193 191 207 236 291 228 283 4 281 265 319 303 338 76